Voltar ao catálogo

LAGEOS 1 AKM

AtivoMEO
NORAD 8822·ROCKET BODY·🇺🇸 United States

Lançado May 4, 1976 de Vandenberg Space Force Base

Loading…

Próximas Passagens (próximas 24 horas)

TLE

AtualizadoSource: Space-Track

Época: Sep 8, 2026, 08:49 UTC

1 08822U 76039C   26251.36743995 -.00000001  00000-0  00000-0 0  9999
2 08822 109.8181 212.5778 0045515 279.0661 238.5087  6.38871772174467

Acompanhe LAGEOS 1 AKM em tempo real com AllMySat

Download on the App Store